Location: Unspecified
(0.0000°N, 0.0000°E)
Time: 08:40:59
(UTC+02:00)

Hubble Space Telescope - Visible Passes

Search period start: 25 May 2017 00:00
Search period end: 04 June 2017 00:00
Orbit: 538 x 541 km, 28.5° (Epoch: 24 May)

Date Brightness Start Highest point End Pass type
(mag) Time Alt. Az. Time Alt. Az. Time Alt. Az.
25 May 3.3 06:59:18 10° NNW 07:02:26 21° NNE 07:05:34 10° ENE visible
25 May 1.7 20:34:37 10° WSW 20:38:38 50° NNW 20:42:39 10° NE visible
26 May 2.7 06:48:49 10° NNW 06:52:25 28° NNE 06:56:01 10° E visible
26 May 2.4 20:24:48 10° W 20:28:36 35° NNW 20:32:23 10° NE visible
27 May 2.0 06:38:29 10° NW 06:42:22 40° NNE 06:46:17 10° E visible
28 May 1.2 06:30:02 24° NW 06:32:20 58° NNE 06:36:25 10° ESE visible
29 May 0.7 06:21:50 70° NW 06:22:17 86° NNE 06:26:26 10° ESE visible
30 May 1.7 06:13:35 39° SE 06:13:35 39° SE 06:16:21 10° SE visible
31 May 3.1 06:05:12 16° SE 06:05:12 16° SE 06:06:09 10° SE visible
